Zurück zum Katalog

ONEWEB-0709

AktivKommunikationPO
NORAD 55172·PAYLOAD·🇬🇧 United Kingdom

Gestartet Jan 10, 2023 von Cape Canaveral Space Force Station

Loading…

Nächste Überflüge (nächste 24 Stunden)

TLE

AktuellSource: CelesTrak SupGP

Epoche: Sep 14, 2026, 22:49 UTC

1 55172C 23004AJ  26257.95118056 -.00002564  00000+0 -72443-2 0  2573
2 55172  87.8956   3.2301 0001057  81.3633  21.7963 13.11414411    11

Verfolge ONEWEB-0709 in Echtzeit mit AllMySat

Download on the App Store